Theta_e
304 304 305 305 305 306 306 307 308 309 309 312 313 314 312 310 309 307 303 307 304 297 299 302 302 295 295 294 291 295 295 297 295 290 290 288 290 293 290 295 292 290 290 288 292 289 285 303 302 295 300 304 305 307
303 304 304 304 304 304 305 306 306 307 309 310 312 313 313 311 309 309 300 308 310 301 299 304 303 303 301 299 296 297 295 295 297 291 291 289 289 291 292 288 300 292 295 292 293 291 301 305 300 304 304 304 306 306
303 304 305 305 306 304 304 305 305 306 307 309 310 312 313 311 309 308 302 304 302 299 298 300 300 306 307 304 304 295 301 301 300 300 293 291 288 293 288 290 295 298 303 296 297 299 302 305 305 306 305 304 308 309
303 304 304 305 305 305 305 304 305 306 306 307 310 311 312 312 309 308 302 304 301 299 291 297 307 303 309 308 305 306 303 304 302 299 293 291 289 296 292 292 292 295 298 296 298 301 303 304 306 306 305 307 308 309
303 303 304 304 305 306 306 306 307 307 306 307 309 311 312 311 309 307 306 305 304 297 291 293 299 302 303 303 305 305 304 302 298 294 293 291 294 296 295 295 293 299 298 295 291 301 300 302 306 307 304 304 308 307
302 303 303 302 303 304 306 306 307 307 308 308 309 310 311 311 307 303 296 303 305 303 294 289 300 300 302 304 303 304 303 302 299 295 293 295 298 294 290 288 297 301 304 301 297 301 302 306 309 310 305 303 308 307
302 303 303 304 304 305 306 304 305 307 308 309 308 309 310 308 304 297 294 299 303 303 294 289 292 300 302 303 303 302 304 301 299 297 294 293 294 299 294 289 297 301 304 303 304 303 300 304 302 306 306 306 308 308
302 303 303 304 304 304 305 306 306 307 308 308 308 309 309 306 304 299 302 304 304 297 296 289 289 295 304 298 297 303 299 300 298 296 296 294 296 297 292 296 301 304 304 304 305 305 303 304 307 308 305 305 303 303
302 303 303 304 304 304 305 305 307 308 308 308 308 306 303 299 295 297 306 304 304 298 290 291 288 290 302 299 299 301 303 295 300 294 294 296 294 292 296 298 303 304 303 301 302 302 302 301 306 306 303 303 301 300
301 303 303 304 304 304 304 306 307 308 308 305 301 296 291 296 305 304 298 292 292 293 293 289 295 291 299 297 297 298 300 295 291 295 298 293 293 299 301 304 305 305 303 301 297 296 298 299 300 304 304 305 302 300
301 302 302 303 303 303 304 304 306 305 304 298 293 292 300 305 298 293 288 287 288 286 290 291 291 290 299 294 295 300 295 296 288 292 293 291 291 298 302 304 305 304 302 301 300 299 301 300 300 301 303 304 303 301
301 301 302 302 303 303 303 303 304 300 298 297 297 300 299 294 289 287 286 288 287 285 292 289 290 293 296 299 298 299 294 295 289 299 293 289 297 303 303 303 303 302 301 300 300 299 299 299 299 299 303 302 301 301
300 301 302 302 302 301 302 303 303 302 300 298 294 290 288 288 283 284 283 287 288 292 295 295 292 294 294 298 297 296 291 290 298 292 290 295 301 302 302 303 302 302 300 300 299 297 297 296 297 299 299 300 300 299
300 300 301 301 301 302 301 301 303 300 295 288 286 283 284 284 285 288 288 291 296 298 298 298 293 293 299 295 295 290 294 295 289 287 290 298 301 302 304 304 301 299 298 298 297 296 294 294 294 294 296 296 295 295
300 300 301 301 301 301 301 301 301 297 291 286 288 283 285 289 292 293 294 293 296 300 297 296 296 298 295 293 294 293 291 288 290 289 296 301 302 303 304 303 301 299 298 296 295 294 293 293 293 292 293 293 293 293
300 299 298 300 300 300 300 300 298 294 288 288 288 286 290 289 289 290 291 292 297 298 297 295 293 292 291 293 291 289 289 288 293 298 301 303 303 303 301 300 299 298 296 295 293 293 293 292 291 290 291 291 291 292
299 295 299 300 299 299 299 293 292 287 287 288 287 291 291 291 289 291 292 293 299 293 287 287 287 289 295 290 289 293 291 295 299 301 302 303 301 300 300 298 297 295 293 292 292 291 291 291 291 289 286 289 290 291
295 297 298 300 300 298 294 292 288 287 284 287 286 291 293 293 291 292 294 296 294 293 292 287 292 290 288 287 289 294 298 301 303 303 303 303 302 301 300 297 296 294 292 291 290 290 290 289 288 287 288 289 290 291
297 298 299 300 298 292 288 289 290 285 287 290 292 292 294 294 295 295 295 296 296 298 295 292 289 289 291 294 295 297 299 301 300 302 304 303 301 299 298 296 295 293 291 291 290 289 289 290 289 289 289 290 289 291
298 299 300 299 299 291 288 289 293 289 286 292 294 293 293 293 295 296 296 296 294 293 290 289 291 294 294 297 300 300 302 302 302 300 300 302 301 300 297 295 293 293 292 291 290 289 289 289 290 292 292 291 290 291
296 296 298 298 295 292 290 290 289 290 292 289 291 292 292 294 293 293 293 297 293 290 289 292 292 296 300 299 300 300 301 302 301 301 300 299 301 300 298 295 294 293 292 290 289 289 289 289 291 292 292 292 293 293
295 297 293 294 288 291 289 293 291 293 292 292 292 293 291 290 291 292 296 293 292 293 294 295 295 296 296 297 298 301 303 304 304 301 300 300 300 297 296 296 295 293 292 292 292 290 291 292 292 292 292 292 292 292
296 294 290 291 288 287 286 294 289 291 287 290 292 289 289 291 293 297 291 293 294 298 299 298 298 299 298 299 301 301 303 303 302 303 303 303 302 301 298 298 297 296 294 295 296 295 293 291 290 292 292 292 291 291
296 290 287 286 286 284 289 288 291 289 289 288 287 285 288 291 295 292 289 292 295 299 298 299 299 298 298 299 297 297 299 301 301 302 305 304 301 302 302 300 300 299 299 299 298 295 294 293 292 292 292 291 290 290
285 285 287 282 288 286 285 285 286 286 284 286 286 286 289 294 290 288 288 291 295 296 297 299 299 298 297 297 298 299 302 301 300 299 305 305 303 302 301 301 301 301 302 299 297 296 295 294 293 292 292 291 290 290
281 286 284 285 286 285 286 284 285 285 286 285 287 290 293 290 286 285 290 294 297 300 300 301 300 300 301 302 301 301 301 303 302 301 304 305 304 302 300 298 298 299 303 302 299 297 296 295 293 292 291 290 288 290
281 285 288 292 291 290 287 289 291 289 286 285 289 289 288 284 285 289 294 298 298 301 302 304 304 302 302 303 305 307 307 307 304 305 307 307 306 306 303 300 299 302 304 304 301 299 296 296 295 294 292 291 291 292
287 289 286 288 288 291 288 288 287 286 288 292 291 286 285 285 286 295 298 301 301 304 304 303 305 304 304 305 306 304 305 306 309 310 308 308 309 307 306 305 305 292 304 305 304 301 299 298 296 295 293 292 292 292
287 291 291 288 289 289 288 288 288 291 295 293 289 288 290 295 298 299 300 302 303 304 302 301 302 304 304 307 305 305 304 304 303 300 300 301 302 303 305 304 304 303 304 304 290 297 300 299 297 296 294 293 294 294
288 292 288 288 287 286 291 295 292 296 297 298 297 295 295 297 300 304 304 303 302 302 303 304 305 302 300 300 302 303 305 306 305 303 302 301 302 305 306 305 304 305 306 304 300 296 287 294 291 295 294 294 294 294
291 292 289 289 288 292 294 296 297 296 295 295 297 294 293 296 300 304 305 305 305 305 304 303 303 304 303 303 303 302 302 307 307 308 308 308 307 306 305 305 305 306 304 302 299 298 296 295 295 294 294 294 294 294
291 289 289 286 289 293 295 292 292 292 292 291 291 294 295 296 294 300 304 305 304 302 293 299 302 301 304 304 307 307 292 308 308 308 308 308 308 307 306 306 306 305 303 302 300 298 296 295 294 294 294 294 296 297
290 290 290 289 289 289 291 291 289 289 290 290 291 293 294 295 293 300 307 306 303 301 300 302 303 303 305 305 305 305 299 308 302 294 293 291 295 300 306 307 306 305 303 301 300 299 297 296 295 294 294 296 297 298
Wind_Speed
16 16 17 18 19 20 20 19 19 19 17 15 16 16 14 11 9 4 6 4 4 4 13 8 3 4 7 5 4 7 9 4 4 5 4 3 2 2 1 4 4 1 5 4 4 3 6 12 10 8 2 5 13 12
16 16 16 17 19 20 20 20 20 20 17 15 16 16 16 14 12 9 4 4 4 5 9 14 22 24 19 18 3 3 5 6 2 2 5 4 4 3 4 3 2 2 4 3 2 3 2 5 3 4 5 9 8 10
16 17 16 17 17 19 20 20 20 20 20 17 16 17 17 17 15 14 3 3 2 5 12 10 10 12 13 16 10 4 2 4 3 2 1 3 5 2 3 3 2 4 5 3 4 1 5 6 5 3 6 7 10 9
15 17 18 17 17 19 20 20 20 21 21 19 17 17 17 17 17 17 5 2 1 4 4 8 5 5 3 10 13 9 2 3 1 2 2 3 3 3 3 5 4 6 4 4 2 2 6 4 2 3 5 7 10 9
17 17 19 18 17 19 19 19 18 18 18 20 18 17 16 16 15 9 6 5 6 3 4 7 16 18 17 10 12 9 6 4 1 2 3 4 4 4 4 4 7 8 3 2 3 1 3 3 4 4 6 6 5 4
17 18 19 20 21 19 18 18 19 19 18 18 19 18 16 13 11 2 3 8 11 5 4 5 5 8 7 9 14 9 6 4 3 3 3 5 10 1 4 3 6 4 2 3 3 1 3 4 3 3 5 1 2 4
18 19 18 18 18 16 17 21 21 20 19 18 15 16 15 17 8 4 3 2 8 4 3 5 6 5 7 11 7 5 7 3 3 3 4 4 4 4 4 7 9 12 8 7 6 3 4 3 4 2 7 4 3 3
18 19 17 16 16 17 19 20 22 22 18 17 15 17 12 14 3 4 3 1 4 0 1 4 7 4 9 4 4 5 4 3 4 4 3 5 4 4 6 8 13 9 2 3 5 5 5 6 3 7 6 5 6 9
18 17 16 16 15 17 19 20 22 18 14 13 6 15 5 1 2 2 7 6 3 2 3 5 4 3 8 4 4 3 4 4 4 6 5 4 5 8 6 8 4 4 5 4 7 7 7 7 7 6 5 5 9 8
18 17 16 16 16 15 17 15 19 9 9 20 4 2 3 3 11 10 4 3 3 3 4 5 7 6 4 6 5 5 4 4 4 9 4 5 7 9 9 7 7 6 9 7 3 4 6 7 5 3 5 5 7 9
17 17 17 16 15 13 11 10 6 17 12 2 2 2 2 11 2 2 4 5 4 4 6 6 14 9 3 3 4 5 4 4 4 5 7 4 4 10 14 8 8 8 8 7 5 3 4 5 7 6 4 6 8 11
17 17 16 14 13 12 8 7 11 2 1 4 3 2 2 2 3 5 5 6 8 8 8 6 10 10 6 2 2 4 4 4 5 4 4 4 3 8 12 11 8 8 8 7 6 4 5 7 7 12 9 8 7 9
17 15 14 12 9 8 6 9 13 8 6 3 1 3 2 4 7 7 9 6 6 6 5 8 6 4 6 3 5 4 6 7 3 4 5 3 6 7 9 7 8 7 8 7 3 3 3 5 7 8 6 5 8 9
16 14 14 12 13 12 11 11 12 8 4 3 4 6 6 6 7 6 7 4 6 6 8 7 4 6 5 2 4 5 6 3 5 6 6 5 6 6 9 7 9 8 7 8 1 2 3 3 4 5 5 3 8 8
16 14 13 12 9 9 8 11 7 3 2 4 5 6 8 7 4 5 5 5 7 2 4 5 5 2 3 5 5 6 5 7 5 5 3 6 7 6 7 9 9 9 8 6 4 2 2 2 3 5 5 6 7 9
16 11 6 10 13 13 6 12 4 2 2 4 6 5 4 3 3 4 7 8 3 4 4 3 4 5 4 4 5 5 4 3 3 4 4 5 5 7 8 9 8 8 8 6 4 3 3 4 6 7 7 6 7 9
11 3 7 15 12 10 11 3 3 5 4 5 6 8 5 3 6 4 2 4 1 1 2 4 6 5 5 2 4 7 2 2 7 2 3 8 9 10 10 9 8 9 7 6 5 4 5 7 7 7 8 6 8 8
4 4 9 11 11 7 3 3 3 5 7 7 5 5 5 4 4 5 5 4 3 2 2 3 5 3 4 3 2 5 4 5 4 5 5 9 9 10 9 9 9 9 8 7 6 6 6 7 7 5 7 8 9 10
4 4 11 14 6 4 3 4 3 3 8 6 7 8 6 8 9 8 7 5 5 3 1 4 3 2 2 3 2 2 1 2 4 4 6 9 10 10 11 10 10 9 8 7 6 4 5 5 5 6 5 5 6 6
11 7 12 15 10 2 4 3 2 5 5 3 2 4 5 6 8 9 7 7 8 6 4 4 4 0 0 2 0 1 3 3 4 7 6 6 7 11 11 9 7 9 7 8 7 9 6 7 6 6 6 6 6 5
7 1 3 8 3 1 3 2 5 5 5 5 7 9 6 7 8 8 7 7 6 6 6 5 6 5 4 3 2 2 3 4 2 3 7 8 7 7 8 9 9 7 7 6 6 7 7 5 4 6 6 6 6 7
3 4 2 3 0 3 4 4 3 3 4 6 6 3 5 5 6 7 5 4 7 7 7 7 7 6 4 6 7 6 5 8 5 6 7 10 7 8 8 8 9 8 8 8 8 8 7 7 5 6 6 6 7 7
10 2 2 3 3 3 6 4 4 4 4 3 2 3 4 4 7 6 5 4 6 8 6 7 8 7 8 9 7 5 4 7 5 7 8 6 7 9 8 9 8 8 8 8 9 8 8 10 8 8 7 7 7 6
4 5 4 4 5 4 4 4 4 4 4 6 8 11 8 4 3 4 4 5 4 4 7 11 6 6 6 7 6 5 5 4 5 4 8 8 7 6 7 8 8 8 8 8 10 10 10 10 12 10 9 10 10 9
3 5 4 5 5 5 4 3 4 5 6 9 11 10 4 3 2 3 7 5 6 6 6 6 8 8 8 7 6 6 6 5 4 5 8 8 8 6 4 2 6 6 7 10 12 12 11 11 11 11 12 11 13 12
4 7 6 7 5 5 5 5 5 10 8 12 6 4 2 3 7 3 4 8 6 6 6 2 1 2 3 1 2 2 1 3 4 5 9 9 11 11 11 7 6 8 7 9 12 15 15 15 14 16 13 14 12 11
4 6 6 5 5 5 4 5 5 2 3 3 3 5 2 3 2 2 3 3 3 3 6 4 1 2 3 4 2 3 2 3 4 1 9 9 9 10 11 11 10 9 8 10 11 13 14 13 14 14 14 12 12 10
5 4 7 8 8 6 7 3 3 2 3 3 2 3 1 2 3 2 2 4 4 4 5 3 2 1 1 1 4 2 2 4 3 8 8 6 6 8 9 8 9 9 6 6 9 13 13 12 12 12 14 12 9 11
5 3 1 7 9 1 3 3 2 1 2 2 1 1 2 1 3 4 7 7 5 3 5 2 1 1 1 3 3 3 2 2 5 14 12 8 5 6 7 8 8 8 7 6 5 12 15 12 13 13 14 11 8 10
9 7 5 6 3 1 2 3 3 5 5 4 3 2 3 5 5 4 5 3 2 3 4 3 3 2 3 2 3 3 2 4 4 3 8 8 8 7 7 9 9 8 6 6 8 8 8 12 10 11 11 9 8 9
5 3 3 2 1 3 4 3 5 4 4 4 4 5 6 3 2 4 4 4 2 2 3 3 4 5 5 4 3 2 4 5 9 7 4 5 8 8 8 8 8 6 7 9 10 10 12 12 12 13 13 11 12 11
5 8 6 3 2 4 3 4 5 4 5 5 6 5 5 2 2 3 4 3 3 3 2 3 4 4 5 4 4 3 1 2 4 3 7 2 5 9 10 9 7 6 8 10 11 12 15 14 12 12 12 14 14 14
3 6 4 2 1 3 4 4 4 5 6 7 7 6 5 2 2 2 1 4 4 4 4 4 5 5 5 5 4 3 2 2 8 6 5 3 7 10 10 8 5 8 10 10 12 12 14 15 13 14 14 13 15 14
Wind_Direction
301 303 306 307 307 306 305 304 303 302 302 296 285 264 247 224 215 187 274 267 224 266 291 255 342 311 309 291 280 332 328 7 355 345 347 341 303 331 1 253 281 301 312 339 335 322 330 2 344 36 246 275 321 332
298 296 294 298 303 302 301 302 303 301 299 295 285 273 250 229 211 189 253 264 181 226 264 296 278 269 250 244 269 254 289 305 8 348 17 338 317 300 316 293 270 284 231 280 229 264 304 309 288 260 271 331 331 318
295 296 294 297 296 299 298 300 300 299 296 295 291 283 262 231 215 197 233 321 306 260 270 258 278 268 212 212 203 193 92 332 74 44 312 272 271 296 285 252 249 263 220 253 333 178 267 213 312 34 12 339 326 319
290 293 295 292 294 298 296 296 296 294 294 293 286 284 271 234 217 208 222 221 224 272 264 282 1 330 237 181 189 203 246 324 179 249 231 244 271 248 267 270 265 245 285 266 245 280 293 190 246 62 32 6 349 68
289 294 293 295 298 294 292 291 288 287 288 286 282 280 279 238 209 216 226 240 256 239 279 307 312 271 242 207 193 181 182 209 227 299 219 240 256 257 253 261 253 239 170 195 234 4 245 316 360 70 56 4 354 27
288 287 290 300 302 298 294 294 290 283 278 273 277 281 283 213 171 169 273 223 218 202 285 284 314 274 256 183 182 175 180 182 165 202 249 256 229 268 261 265 268 43 44 95 228 186 206 246 285 133 111 55 23 4
285 285 285 285 293 296 297 308 304 287 271 271 269 266 274 173 164 173 198 311 337 177 237 275 268 218 206 154 175 178 184 164 161 218 222 242 265 202 237 253 269 279 233 186 219 203 295 165 235 169 128 138 138 71
283 285 289 294 303 309 308 305 301 294 265 262 261 270 208 161 167 250 248 236 350 307 338 245 261 265 168 179 172 168 147 150 184 221 252 244 262 200 251 238 246 247 156 171 65 348 323 308 308 127 128 143 129 133
284 290 295 292 298 300 302 302 301 284 251 261 142 104 99 129 162 224 136 73 16 262 247 237 243 260 148 181 175 137 151 185 203 203 224 222 212 219 219 244 182 115 100 53 20 355 341 14 12 118 138 163 145 150
284 285 289 291 289 297 305 310 305 253 176 126 82 136 185 199 138 100 84 144 203 235 261 258 265 254 230 177 187 150 174 214 213 212 201 204 245 248 238 249 157 138 99 86 61 343 346 332 345 315 205 187 166 156
285 284 290 290 295 295 302 306 109 119 113 63 118 174 123 156 93 147 173 200 175 230 222 221 222 230 239 224 203 197 183 212 226 226 183 230 242 226 224 159 105 102 102 98 82 27 357 346 322 323 237 164 162 156
283 281 284 285 290 281 254 280 171 95 149 120 114 84 97 168 190 202 196 192 202 232 186 218 219 207 226 219 178 200 207 233 232 197 180 241 205 109 105 112 111 104 102 88 79 38 328 313 315 273 217 158 144 148
277 275 278 275 260 258 259 251 208 127 89 38 158 134 188 182 221 218 198 198 210 207 184 197 167 155 205 239 221 210 194 221 259 200 209 200 141 118 123 135 123 125 113 94 68 40 347 335 357 28 76 97 130 133
271 268 274 261 268 248 248 245 233 143 108 184 181 198 208 193 233 202 267 344 337 307 334 321 148 189 180 174 148 192 227 239 247 194 210 154 139 135 137 136 115 106 94 92 37 343 338 28 37 35 49 95 125 126
268 260 263 263 228 219 239 218 143 68 132 216 215 224 213 233 243 264 293 304 306 324 351 320 218 215 165 164 228 222 198 228 223 208 111 125 131 147 131 137 128 131 117 119 115 122 115 106 102 76 67 86 100 106
263 265 242 210 213 213 224 168 129 110 239 232 229 251 232 260 285 342 316 273 316 325 340 243 249 197 182 207 212 227 219 217 34 85 114 119 110 93 97 90 85 91 94 102 99 102 117 110 109 99 85 88 94 106
239 213 216 209 185 178 167 96 149 180 230 231 224 220 238 231 242 229 209 295 9 220 203 253 234 184 145 198 205 174 298 70 102 102 106 103 117 110 105 101 102 108 111 112 106 95 101 102 96 95 95 91 106 110
210 199 241 206 177 150 115 183 204 209 230 238 242 222 200 237 238 240 226 192 252 201 204 259 288 215 163 166 331 26 14 56 103 138 108 118 111 109 113 112 116 116 116 120 122 115 100 104 103 103 108 116 113 116
180 214 227 180 150 151 160 185 213 247 231 250 228 244 200 222 224 247 239 198 240 180 198 278 259 287 104 84 73 345 48 137 157 148 120 121 126 125 115 116 117 119 121 127 128 113 103 105 114 123 120 118 116 120
207 297 180 183 183 159 204 192 232 255 259 197 289 304 281 250 248 246 227 213 211 181 205 229 212 297 7 266 17 238 20 331 140 122 114 127 136 134 134 136 128 128 123 118 109 121 117 120 120 121 129 135 137 118
122 229 152 176 175 282 287 207 211 241 252 237 221 226 225 229 229 235 228 226 228 220 231 219 260 264 206 266 298 269 115 59 307 158 146 149 161 142 128 121 138 134 130 135 134 128 128 125 113 115 110 98 106 115
121 135 81 78 126 231 252 235 227 259 262 274 271 226 257 255 247 246 238 248 249 226 223 235 234 232 245 263 270 231 173 164 159 103 97 130 146 136 148 151 152 159 156 159 148 152 146 143 131 126 118 107 98 106
102 99 105 173 213 220 256 222 226 243 257 264 18 297 254 255 264 251 250 211 228 242 253 247 232 226 231 229 226 251 218 179 177 155 150 169 160 154 160 159 167 166 160 166 148 139 138 138 146 139 128 121 121 117
155 157 185 187 201 245 242 218 230 237 259 260 276 279 279 234 202 176 235 259 260 215 220 231 236 243 222 216 220 226 239 223 179 178 157 148 155 159 168 162 173 182 167 146 143 143 146 159 144 147 156 149 149 156
133 192 200 210 218 229 232 223 222 235 249 264 274 282 264 273 266 273 276 266 266 264 233 215 212 228 226 218 207 214 227 241 192 199 149 147 140 133 113 118 189 171 151 156 149 150 160 155 160 159 164 162 161 170
217 201 201 205 206 213 210 241 241 240 261 266 248 243 73 279 246 259 27 345 339 339 338 15 82 281 312 267 241 266 256 205 204 173 147 151 156 161 161 181 153 157 167 148 156 167 171 169 167 173 161 159 174 180
236 234 203 229 250 240 240 250 270 209 257 260 356 16 6 263 322 356 287 324 310 343 313 322 307 283 253 253 290 106 294 319 118 23 144 160 162 167 163 165 176 165 169 173 166 156 158 159 163 162 160 167 185 176
253 286 238 222 218 231 262 294 278 299 43 350 326 32 360 261 268 291 263 275 256 285 308 281 221 216 219 348 62 45 330 327 259 133 156 140 151 148 160 173 171 158 187 191 160 158 162 161 162 157 156 167 174 161
245 255 124 256 249 191 242 232 220 46 42 338 315 289 274 256 238 265 289 297 294 321 319 343 3 330 104 126 106 107 100 16 162 149 149 146 150 154 163 156 166 170 185 198 194 154 162 154 153 151 159 167 174 161
252 251 249 253 243 245 324 297 329 146 185 190 191 242 255 264 258 245 243 267 297 305 309 354 331 301 269 177 178 178 210 207 194 212 160 166 171 151 151 158 160 173 188 175 157 134 116 131 129 141 152 167 153 156
236 266 272 251 166 220 244 237 254 264 278 267 229 240 274 289 6 17 20 360 32 37 31 22 44 37 30 33 14 6 125 149 180 165 102 145 156 159 152 157 165 187 172 147 133 139 137 142 146 154 156 160 159 163
233 236 252 248 225 256 261 280 280 286 298 299 289 271 258 205 20 36 342 10 62 51 13 19 40 43 55 30 34 37 154 139 120 95 72 265 160 150 157 163 182 147 143 142 143 143 147 149 154 157 164 173 172 180
173 234 225 226 345 288 262 241 265 274 251 242 241 252 265 291 87 162 359 31 50 49 34 30 357 11 2 5 16 359 351 91 121 137 221 254 190 155 160 169 166 159 164 150 152 155 157 158 161 168 180 185 180 192